period_start,C,m1,H,J0,J1,J2,J3,J4,J5,JA,JB,JC,JD,JJ,JK,JN,#
2017-06-28 00:04:47,0.01,0.70,0.00,28.40,32.62,35.02,13.70,41.17,1017.43,2006.92,3183.00,2882.17,3268.18,599.83,585.76,42.83,0000 0000 0000 0000 000000
2017-06-28 00:09:49,0.00,0.70,0.00,28.40,32.61,35.00,13.64,41.21,1017.24,2006.97,3183.00,2882.04,3268.08,600.07,585.81,42.88,0000 0000 0000 0000 000000
2017-06-28 00:14:50,-0.00,0.70,0.00,28.40,32.60,34.99,13.64,41.17,1017.15,2006.95,3183.00,2882.05,3268.04,600.00,585.68,42.93,0000 0000 0000 0000 000000
2017-06-28 00:19:51,0.00,0.70,0.00,28.39,32.60,34.98,13.60,41.13,1017.18,2006.98,3182.99,2882.05,3268.04,600.14,585.74,42.98,0000 0000 0000 0000 000000
2017-06-28 00:24:53,-0.00,0.70,0.00,28.38,32.58,34.97,13.55,41.14,1017.25,2006.99,3182.99,2882.05,3268.04,600.10,585.96,43.04,0000 0000 0000 0000 000000
2017-06-28 00:29:54,0.00,0.70,0.00,28.37,32.57,34.95,13.70,41.29,1017.18,2006.99,3182.97,2882.02,3268.05,600.38,586.10,43.09,0000 0000 0000 0000 000000
2017-06-28 00:34:55,0.00,0.70,0.00,28.37,32.57,34.95,13.56,41.22,1017.15,2006.99,3182.98,2882.09,3268.10,599.82,585.56,43.14,0000 0000 0000 0000 000000
2017-06-28 00:39:57,0.00,0.70,0.00,28.37,32.55,34.94,13.61,41.49,1017.12,2006.99,3182.98,2882.14,3268.15,600.13,585.86,43.19,0000 0000 0000 0000 000000
2017-06-28 00:44:58,0.00,0.70,0.00,28.37,32.55,34.93,13.65,41.46,1017.12,2006.99,3182.98,2882.09,3268.10,600.26,586.02,43.24,0000 0000 0000 0000 000000
2017-06-28 00:49:59,0.00,0.70,0.00,28.37,32.55,34.92,13.58,41.33,1017.14,2007.00,3182.97,2882.12,3268.11,599.77,585.51,43.29,0000 0000 0000 0000 000000
2017-06-28 00:55:00,0.00,0.70,0.00,28.36,32.53,34.91,13.60,41.42,1017.13,2007.00,3182.89,2882.11,3268.08,599.90,585.64,43.34,0000 0000 0000 0000 000000
2017-06-28 01:00:01,0.00,0.70,0.00,28.36,32.52,34.90,13.60,41.33,1017.19,2007.02,3182.78,2882.10,3268.07,600.19,585.95,43.39,0000 0000 0000 0000 000000
2017-06-28 01:05:03,0.01,0.70,0.00,28.35,32.52,34.90,13.58,41.31,1017.35,2007.02,3182.22,2882.01,3268.01,600.06,585.98,43.44,0000 0000 0000 0000 000000
2017-06-28 01:10:04,0.00,0.70,0.00,28.35,32.52,34.89,13.53,41.26,1017.51,2007.06,3182.01,2882.00,3267.99,599.58,585.57,43.49,0000 0000 0000 0000 000000
2017-06-28 01:15:06,-0.00,0.71,0.00,28.35,32.50,34.89,13.68,41.33,1017.50,2007.07,3182.01,2882.00,3267.99,600.26,586.14,43.54,0000 0000 0000 0000 000000
2017-06-28 01:20:07,0.01,0.70,0.00,28.35,32.50,34.87,13.58,41.26,1017.59,2007.09,3182.02,2882.00,3267.99,600.13,586.17,43.59,0000 0000 0000 0000 000000
2017-06-28 01:25:08,0.03,0.71,0.00,28.35,32.50,34.87,13.56,41.17,1017.59,2007.36,3182.00,2882.00,3267.99,599.86,585.89,43.64,0000 0000 0000 0000 000000
2017-06-28 01:30:10,0.01,0.71,0.00,28.35,32.49,34.86,13.61,41.26,1017.57,2007.57,3182.01,2882.00,3267.99,600.08,586.17,43.69,0000 0000 0000 0000 000000
2017-06-28 01:35:11,0.01,0.71,0.00,28.35,32.48,34.86,13.62,41.25,1017.59,2007.73,3182.00,2882.00,3267.99,600.11,586.12,43.74,0000 0000 0000 0000 000000
2017-06-28 01:40:12,0.01,0.71,0.00,28.35,32.47,34.85,13.60,41.31,1017.59,2007.73,3182.00,2881.99,3267.99,600.09,586.09,43.79,0000 0000 0000 0000 000000
2017-06-28 01:45:13,0.01,0.71,0.00,28.34,32.47,34.85,13.56,41.33,1017.59,2007.86,3182.00,2881.99,3267.97,599.75,585.85,43.84,0000 0000 0000 0000 000000
2017-06-28 01:50:15,-0.01,0.71,0.00,28.35,32.47,34.84,13.65,41.38,1017.60,2007.75,3182.00,2881.99,3267.97,600.11,586.13,43.90,0000 0000 0000 0000 000000
2017-06-28 01:55:16,0.01,0.71,0.00,28.35,32.46,34.84,13.57,41.26,1017.60,2007.76,3181.95,2881.98,3267.81,600.02,586.04,43.95,0000 0000 0000 0000 000000
2017-06-28 02:00:17,0.02,0.71,0.00,28.35,32.45,34.84,13.63,41.25,1017.59,2007.79,3181.68,2881.97,3267.52,600.03,586.09,44.00,0000 0000 0000 0000 000000
2017-06-28 02:05:19,0.01,0.71,0.00,28.35,32.45,34.84,13.65,41.42,1017.58,2007.90,3181.57,2881.93,3267.18,600.33,586.32,44.05,0000 0000 0000 0000 000000
2017-06-28 02:10:20,0.02,0.71,0.00,28.33,32.45,34.83,13.63,41.35,1017.59,2007.94,3181.09,2881.77,3267.05,600.17,586.24,44.10,0000 0000 0000 0000 000000
2017-06-28 02:15:21,0.00,0.71,0.00,28.33,32.45,34.82,13.54,41.46,1017.58,2007.94,3181.05,2881.65,3267.01,599.61,585.68,44.15,0000 0000 0000 0000 000000
2017-06-28 02:20:22,0.01,0.71,0.00,28.33,32.45,34.81,13.61,41.31,1017.58,2007.96,3181.01,2881.36,3267.00,600.42,586.47,44.20,0000 0000 0000 0000 000000
2017-06-28 02:25:24,0.00,0.71,0.00,28.34,32.44,34.80,13.65,41.27,1017.60,2007.95,3181.00,2881.06,3267.00,600.07,586.07,44.25,0000 0000 0000 0000 000000
2017-06-28 02:30:25,-0.00,0.71,0.00,28.34,32.43,34.81,13.68,41.30,1017.67,2007.95,3180.98,2881.01,3267.00,600.06,586.26,44.30,0000 0000 0000 0000 000000
2017-06-28 02:35:26,0.00,0.71,0.00,28.34,32.42,34.81,13.66,41.31,1017.96,2007.94,3180.95,2881.01,3266.99,600.14,586.46,44.35,0000 0000 0000 0000 000000
2017-06-28 02:40:27,0.00,0.71,0.00,28.35,32.42,34.81,13.64,41.17,1018.07,2007.97,3180.90,2881.01,3266.97,600.09,586.35,44.40,0000 0000 0000 0000 000000
2017-06-28 02:45:28,0.01,0.71,0.00,28.35,32.42,34.80,13.69,41.22,1018.08,2007.98,3180.58,2881.00,3266.84,600.11,586.42,44.45,0000 0000 0000 0000 000000
2017-06-28 02:50:30,0.01,0.71,0.00,28.35,32.42,34.80,13.62,41.25,1018.08,2007.97,3180.35,2881.00,3266.70,600.03,586.37,44.50,0000 0000 0000 0000 000000
2017-06-28 02:55:31,0.01,0.71,0.00,28.35,32.42,34.78,13.62,41.17,1018.08,2007.98,3180.02,2880.99,3266.24,599.90,586.27,44.55,0000 0000 0000 0000 000000
2017-06-28 03:00:32,0.00,0.71,0.00,28.35,32.42,34.80,13.64,41.18,1018.08,2007.99,3180.00,2880.97,3266.11,600.08,586.39,44.60,0000 0000 0000 0000 000000
2017-06-28 03:05:33,0.00,0.71,0.00,28.36,32.42,34.78,13.64,41.18,1018.07,2007.99,3180.00,2880.91,3266.00,600.43,586.68,44.65,0000 0000 0000 0000 000000
2017-06-28 03:10:35,0.01,0.71,0.00,28.35,32.42,34.79,13.59,41.22,1018.08,2007.99,3179.88,2880.62,3266.00,599.95,586.31,44.70,0000 0000 0000 0000 000000
2017-06-28 03:15:36,0.02,0.72,0.00,28.36,32.42,34.79,13.61,41.27,1018.09,2007.98,3179.52,2880.21,3265.97,600.08,586.22,44.75,0000 0000 0000 0000 000000
2017-06-28 03:20:37,0.00,0.72,0.00,28.37,32.42,34.79,13.59,41.21,1018.10,2007.99,3179.06,2880.08,3265.92,600.19,586.44,44.80,0000 0000 0000 0000 000000
2017-06-28 03:25:39,0.01,0.72,0.00,28.37,32.42,34.78,13.60,41.10,1018.15,2007.98,3179.00,2880.01,3265.64,599.90,586.21,44.86,0000 0000 0000 0000 000000
2017-06-28 03:30:40,0.01,0.72,0.00,28.37,32.42,34.79,13.58,41.21,1018.24,2007.99,3179.00,2880.00,3265.39,599.66,586.05,44.91,0000 0000 0000 0000 000000
2017-06-28 03:35:41,0.00,0.72,0.00,28.38,32.42,34.78,13.66,41.12,1018.36,2007.99,3178.99,2880.00,3265.10,600.19,586.56,44.96,0000 0000 0000 0000 000000
2017-06-28 03:40:42,0.00,0.72,0.00,28.38,32.42,34.79,13.57,41.17,1018.37,2007.99,3178.95,2880.00,3265.05,599.96,586.35,45.01,0000 0000 0000 0000 000000
2017-06-28 03:45:43,0.00,0.72,0.00,28.40,32.42,34.79,13.59,41.21,1018.49,2007.99,3178.82,2880.00,3265.01,599.96,586.46,45.06,0000 0000 0000 0000 000000
2017-06-28 03:50:45,0.01,0.72,0.00,28.39,32.42,34.79,13.62,41.21,1018.56,2007.99,3178.23,2879.97,3265.00,600.17,586.69,45.11,0000 0000 0000 0000 000000
2017-06-28 03:55:46,0.01,0.72,0.00,28.39,32.42,34.78,13.62,41.09,1018.57,2007.99,3178.01,2879.74,3264.98,600.08,586.62,45.16,0000 0000 0000 0000 000000
2017-06-28 04:00:48,-0.00,0.72,0.00,28.40,32.42,34.78,13.65,41.13,1018.58,2007.99,3178.01,2879.82,3264.96,599.64,586.32,45.21,0000 0000 0000 0000 000000
2017-06-28 04:05:48,0.01,0.72,0.00,28.40,32.42,34.78,13.62,41.20,1018.60,2007.99,3177.99,2879.43,3264.77,600.00,586.51,45.26,0000 0000 0000 0000 000000
2017-06-28 04:10:50,0.01,0.72,0.00,28.40,32.42,34.79,13.61,41.22,1018.65,2007.99,3177.98,2879.25,3264.50,599.88,586.49,45.31,0000 0000 0000 0000 000000
2017-06-28 04:15:51,0.01,0.72,0.00,28.41,32.42,34.78,13.59,41.21,1018.68,2007.99,3177.94,2879.13,3264.23,599.97,586.51,45.36,0000 0000 0000 0000 000000
2017-06-28 04:20:52,0.01,0.72,0.00,28.41,32.42,34.79,13.66,41.24,1018.73,2007.99,3177.44,2879.03,3264.03,599.97,586.49,45.41,0000 0000 0000 0000 000000
2017-06-28 04:25:53,0.00,0.72,0.00,28.42,32.42,34.80,13.62,41.23,1018.83,2007.99,3177.10,2879.00,3264.00,599.94,586.47,45.46,0000 0000 0000 0000 000000
2017-06-28 04:30:54,0.00,0.72,0.00,28.42,32.42,34.79,13.63,41.22,1018.85,2007.99,3177.01,2879.00,3264.00,600.03,586.52,45.51,0000 0000 0000 0000 000000
2017-06-28 04:35:56,0.00,0.72,0.00,28.42,32.43,34.80,13.59,41.17,1019.00,2007.99,3176.99,2879.00,3263.99,600.06,586.74,45.56,0000 0000 0000 0000 000000
2017-06-28 04:40:57,0.00,0.72,0.00,28.42,32.43,34.79,13.65,41.21,1019.01,2007.99,3176.98,2879.00,3263.94,599.92,586.55,45.61,0000 0000 0000 0000 000000
2017-06-28 04:45:58,0.00,0.72,0.00,28.44,32.43,34.80,13.63,41.06,1019.05,2007.98,3176.91,2878.98,3263.62,600.09,586.85,45.66,0000 0000 0000 0000 000000
2017-06-28 04:51:00,0.01,0.72,0.00,28.45,32.44,34.80,13.61,41.15,1019.06,2007.98,3176.62,2878.95,3263.23,599.78,586.44,45.71,0000 0000 0000 0000 000000
2017-06-28 04:56:01,0.01,0.72,0.00,28.45,32.45,34.80,13.64,41.11,1019.08,2007.98,3176.27,2878.87,3263.08,599.99,586.66,45.77,0000 0000 0000 0000 000000
2017-06-28 05:01:02,0.01,0.72,0.00,28.44,32.45,34.80,13.58,41.22,1019.09,2007.98,3176.08,2878.54,3263.02,599.72,586.44,45.82,0000 0000 0000 0000 000000
2017-06-28 05:06:03,0.00,0.72,0.00,28.45,32.45,34.81,13.62,41.13,1019.13,2007.98,3176.05,2878.33,3263.00,599.82,586.54,45.87,0000 0000 0000 0000 000000
2017-06-28 05:11:04,0.00,0.72,0.00,28.45,32.45,34.81,13.60,41.08,1019.23,2007.99,3176.02,2878.22,3263.00,599.94,586.67,45.92,0000 0000 0000 0000 000000
2017-06-28 05:16:06,0.01,0.72,0.00,28.45,32.45,34.81,13.62,41.13,1019.46,2007.97,3176.02,2878.12,3263.00,600.26,587.01,45.97,0000 0000 0000 0000 000000
2017-06-28 05:21:07,-0.00,0.72,0.00,28.46,32.45,34.81,13.68,41.17,1019.54,2007.97,3176.00,2878.02,3263.00,599.90,586.76,46.02,0000 0000 0000 0000 000000
2017-06-28 05:26:08,0.00,0.72,0.00,28.46,32.45,34.81,13.60,41.08,1019.55,2007.96,3175.99,2878.00,3262.96,600.19,587.13,46.07,0000 0000 0000 0000 000000
2017-06-28 05:31:09,-0.01,0.72,0.00,28.46,32.45,34.82,13.64,41.12,1019.55,2007.93,3175.97,2878.00,3262.90,600.03,586.97,46.12,0000 0000 0000 0000 000000
2017-06-28 05:36:11,0.01,0.72,0.00,28.47,32.45,34.82,13.67,41.15,1019.56,2007.93,3175.78,2878.00,3262.58,600.28,587.23,46.17,0000 0000 0000 0000 000000
2017-06-28 05:41:12,-0.00,0.72,0.00,28.47,32.45,34.83,13.68,41.27,1019.56,2007.80,3175.46,2877.98,3262.13,600.04,586.90,46.22,0000 0000 0000 0000 000000
2017-06-28 05:46:13,0.00,0.72,0.00,28.47,32.45,34.82,13.65,41.14,1019.56,2007.74,3175.36,2877.97,3262.03,600.13,586.99,46.27,0000 0000 0000 0000 000000
2017-06-28 05:51:15,0.00,0.72,0.00,28.47,32.45,34.83,13.62,41.13,1019.59,2007.80,3175.34,2877.98,3262.02,599.91,586.87,46.32,0000 0000 0000 0000 000000
2017-06-28 05:56:16,0.00,0.73,0.00,28.47,32.45,34.84,13.63,41.12,1019.79,2007.82,3175.13,2877.93,3262.00,599.92,587.00,46.37,0000 0000 0000 0000 000000
2017-06-28 06:01:17,-0.00,0.73,0.00,28.47,32.45,34.82,13.55,41.08,1019.91,2007.77,3175.03,2877.89,3262.00,599.64,586.78,46.42,0000 0000 0000 0000 000000
2017-06-28 06:06:19,0.01,0.73,0.00,28.47,32.46,34.82,13.61,41.09,1020.02,2007.78,3175.01,2877.81,3262.00,599.85,587.03,46.47,0000 0000 0000 0000 000000
2017-06-28 06:11:20,-0.00,0.73,0.00,28.49,32.46,34.83,13.69,41.09,1020.03,2007.69,3175.00,2877.44,3261.99,600.24,587.40,46.52,0000 0000 0000 0000 000000
2017-06-28 06:16:21,0.01,0.73,0.00,28.50,32.46,34.84,13.59,41.20,1020.02,2007.70,3175.00,2877.19,3261.98,599.56,586.64,46.57,0000 0000 0000 0000 000000
2017-06-28 06:21:23,0.01,0.73,0.00,28.50,32.47,34.82,13.64,41.13,1020.03,2007.69,3174.91,2877.06,3261.92,600.02,587.22,46.62,0000 0000 0000 0000 000000
2017-06-28 06:26:24,0.01,0.73,0.00,28.50,32.47,34.83,13.68,41.18,1020.03,2007.65,3174.91,2877.02,3261.70,600.23,587.36,46.67,0000 0000 0000 0000 000000
2017-06-28 06:31:25,0.01,0.73,0.00,28.50,32.47,34.83,13.57,41.05,1020.04,2007.70,3174.78,2877.01,3261.56,599.89,587.07,46.73,0000 0000 0000 0000 000000
2017-06-28 06:36:27,-0.00,0.73,0.00,28.50,32.46,34.84,13.68,41.22,1020.04,2007.82,3174.82,2877.02,3261.59,600.11,587.18,46.78,0000 0000 0000 0000 000000
2017-06-28 06:41:28,-0.02,0.73,0.00,28.50,32.46,34.84,13.60,41.27,1020.07,2007.56,3174.91,2877.01,3261.27,599.85,586.97,46.83,0000 0000 0000 0000 000000
2017-06-28 06:46:29,-0.00,0.73,0.00,28.50,32.46,34.83,13.66,41.21,1020.18,2007.45,3174.89,2877.01,3261.19,600.04,587.28,46.88,0000 0000 0000 0000 000000
2017-06-28 06:51:31,-0.01,0.73,0.00,28.49,32.45,34.84,13.58,41.26,1020.31,2007.25,3174.62,2877.00,3261.06,599.80,587.06,46.93,0000 0000 0000 0000 000000
2017-06-28 06:56:32,-0.00,0.73,0.00,28.48,32.45,34.84,13.67,41.26,1020.39,2007.22,3174.35,2877.00,3261.04,600.10,587.49,46.98,0000 0000 0000 0000 000000
2017-06-28 07:01:33,-0.01,0.72,0.00,28.47,32.45,34.84,13.67,41.30,1020.48,2007.13,3174.34,2877.00,3261.00,600.22,587.62,47.03,0000 0000 0000 0000 000000
2017-06-28 07:06:34,-0.01,0.72,0.00,28.47,32.45,34.84,13.65,41.41,1020.47,2007.04,3174.48,2877.00,3261.00,599.91,587.36,47.08,0000 0000 0000 0000 000000
2017-06-28 07:11:36,-0.00,0.72,0.00,28.46,32.45,34.84,13.61,41.32,1020.52,2007.05,3174.62,2877.00,3261.01,600.03,587.64,47.13,0000 0000 0000 0000 000000
2017-06-28 07:16:37,0.02,0.72,0.00,28.45,32.45,34.84,13.62,41.20,1020.52,2007.12,3174.21,2877.00,3261.01,599.98,587.53,47.18,0000 0000 0000 0000 000000
2017-06-28 07:21:38,0.01,0.73,0.00,28.44,32.43,34.82,13.74,41.14,1020.56,2007.15,3174.06,2877.00,3261.00,600.32,587.86,47.23,0000 0000 0000 0000 000000
2017-06-28 07:26:39,0.02,0.73,0.00,28.42,32.42,34.83,13.70,41.16,1020.62,2007.36,3174.01,2877.00,3261.00,599.81,587.46,47.28,0000 0000 0000 0000 000000
2017-06-28 07:31:41,-0.00,0.73,0.00,28.40,32.42,34.82,13.58,41.17,1020.57,2007.46,3174.00,2876.98,3260.99,600.10,587.73,47.33,0000 0000 0000 0000 000000
2017-06-28 07:36:42,0.01,0.73,0.00,28.40,32.42,34.82,13.68,41.32,1020.54,2007.47,3173.97,2876.84,3260.90,600.12,587.76,47.38,0000 0000 0000 0000 000000
2017-06-28 07:41:43,-0.01,0.73,0.00,28.40,32.41,34.81,13.67,41.23,1020.62,2007.46,3173.98,2876.85,3260.87,600.07,587.78,47.43,0000 0000 0000 0000 000000
2017-06-28 07:46:45,0.01,0.73,0.00,28.40,32.40,34.80,13.66,41.30,1020.85,2007.63,3173.99,2876.92,3260.94,600.06,587.79,47.48,0000 0000 0000 0000 000000
2017-06-28 07:51:46,0.02,0.73,0.00,28.42,32.40,34.80,13.62,41.36,1020.90,2007.77,3173.99,2876.95,3260.96,599.83,587.69,47.53,0000 0000 0000 0000 000000
2017-06-28 07:56:47,0.01,0.73,0.00,28.42,32.40,34.78,13.70,41.54,1020.75,2007.89,3173.99,2876.97,3260.97,600.37,588.11,47.58,0000 0000 0000 0000 000000
2017-06-28 08:01:49,-0.00,0.73,0.00,28.44,32.40,34.77,13.59,41.27,1020.92,2007.90,3173.99,2876.98,3260.97,599.90,587.66,47.64,0000 0000 0000 0000 000000
2017-06-28 08:06:50,0.01,0.73,0.00,28.47,32.39,34.78,13.67,41.23,1020.99,2007.93,3173.95,2876.89,3260.85,600.20,587.93,47.69,0000 0000 0000 0000 000000
2017-06-28 08:11:51,-0.00,0.73,0.00,28.47,32.37,34.77,13.62,41.30,1021.00,2007.97,3173.87,2876.78,3260.80,600.01,587.69,47.74,0000 0000 0000 0000 000000
2017-06-28 08:16:52,-0.01,0.73,0.00,28.47,32.37,34.77,13.62,41.21,1020.98,2007.97,3173.91,2876.86,3260.84,600.34,588.07,47.79,0000 0000 0000 0000 000000
2017-06-28 08:21:54,0.01,0.73,0.00,28.47,32.37,34.76,13.56,41.26,1021.00,2007.97,3173.84,2876.73,3260.64,599.78,587.53,47.84,0000 0000 0000 0000 000000
2017-06-28 08:26:55,0.15,0.73,0.00,28.48,32.37,34.74,13.67,41.36,1020.99,2007.97,3171.76,2875.30,3259.16,600.11,587.84,47.89,0000 0000 0000 0000 000000
2017-06-28 08:31:56,0.02,0.74,0.00,28.44,32.37,34.77,13.62,41.37,1020.98,2007.98,3170.12,2874.16,3258.01,600.10,587.83,47.94,0000 0000 0000 0000 000000
2017-06-28 08:36:57,-0.00,0.74,0.00,28.43,32.36,34.76,13.71,41.45,1020.93,2007.97,3170.04,2874.05,3258.00,600.23,587.84,47.99,0000 0000 0000 0000 000000
2017-06-28 08:41:58,0.00,0.74,0.00,28.42,32.35,34.75,13.63,41.26,1020.98,2007.99,3170.02,2874.01,3258.00,599.93,587.69,48.04,0000 0000 0000 0000 000000
2017-06-28 08:47:00,0.00,0.74,0.00,28.43,32.35,34.74,13.63,41.22,1020.99,2007.99,3170.01,2874.03,3258.00,600.12,587.88,48.09,0000 0000 0000 0000 000000
2017-06-28 08:52:01,0.00,0.74,0.00,28.43,32.35,34.72,13.60,41.17,1021.00,2007.99,3170.01,2874.07,3257.99,600.03,587.89,48.14,0000 0000 0000 0000 000000
2017-06-28 08:57:02,0.00,0.74,0.00,28.45,32.35,34.72,13.62,41.38,1021.01,2007.99,3169.79,2873.89,3257.79,600.24,588.02,48.19,0000 0000 0000 0000 000000
2017-06-28 09:02:03,0.37,0.75,0.00,28.45,32.34,34.71,13.71,41.21,1021.02,2007.99,3163.17,2869.67,3252.75,600.28,588.07,48.24,0000 0000 0000 0000 000000
2017-06-28 09:07:05,0.01,0.76,0.00,28.45,32.33,34.70,13.62,41.18,1021.02,2007.99,3162.01,2868.99,3251.97,600.12,587.92,48.29,0000 0000 0000 0000 000000
2017-06-28 09:12:06,0.00,0.76,0.00,28.45,32.32,34.70,13.64,41.13,1021.03,2007.99,3162.00,2868.96,3251.91,600.06,587.87,48.34,0000 0000 0000 0000 000000
2017-06-28 09:17:08,0.02,0.76,0.00,28.45,32.32,34.70,13.62,41.14,1021.02,2007.99,3161.98,2868.75,3251.49,599.70,587.49,48.39,0000 0000 0000 0000 000000
2017-06-28 09:22:09,0.01,0.76,0.00,28.47,32.32,34.69,13.63,41.31,1021.01,2007.99,3161.83,2868.41,3251.16,599.89,587.64,48.44,0000 0000 0000 0000 000000
2017-06-28 09:27:10,0.22,0.76,0.00,28.47,32.32,34.69,13.54,41.17,1021.01,2007.99,3158.47,2866.42,3248.96,599.79,587.54,48.49,0000 0000 0000 0000 000000
2017-06-28 09:32:11,0.03,0.77,0.00,28.48,32.32,34.69,13.65,41.20,1021.01,2007.99,3156.03,2865.01,3247.09,600.14,587.88,48.55,0000 0000 0000 0000 000000
2017-06-28 09:37:12,0.00,0.77,0.00,28.49,32.30,34.67,13.61,41.23,1021.01,2007.99,3156.00,2864.95,3247.01,599.92,587.52,48.60,0000 0000 0000 0000 000000
2017-06-28 09:42:14,0.00,0.77,0.00,28.50,32.30,34.67,13.57,41.15,1021.10,2007.99,3155.80,2864.78,3246.89,599.83,587.64,48.65,0000 0000 0000 0000 000000
2017-06-28 09:47:15,0.43,0.79,0.00,28.50,32.30,34.65,13.65,41.08,1021.49,2007.99,3149.44,2860.02,3242.02,599.64,587.59,48.70,0000 0000 0000 0000 000000
2017-06-28 09:52:17,0.21,0.80,0.00,28.51,32.30,34.66,13.63,41.05,1021.50,2007.99,3144.21,2856.36,3237.76,600.21,588.07,48.75,0000 0000 0000 0000 000000
2017-06-28 09:57:18,0.57,0.82,0.00,28.53,32.30,34.65,13.58,41.25,1021.51,2007.99,3134.93,2849.87,3230.62,599.39,587.36,48.80,0000 0000 0000 0000 000000
2017-06-28 10:02:19,1.03,0.86,0.00,28.56,32.30,34.64,13.52,41.13,1021.52,2007.99,3117.30,2837.36,3216.79,599.57,587.44,48.85,0000 0000 0000 0000 000000
2017-06-28 10:07:20,0.30,0.90,0.00,28.60,32.30,34.63,13.62,41.08,1021.58,2007.99,3106.66,2829.84,3208.49,599.90,587.71,48.90,0000 0000 0000 0000 000000
2017-06-28 10:12:21,0.27,0.91,0.00,28.62,32.30,34.62,13.65,41.10,1021.59,2007.99,3100.36,2825.51,3203.46,600.07,587.89,48.95,0000 0000 0000 0000 000000
2017-06-28 10:17:23,0.77,0.94,0.00,28.66,32.30,34.63,13.68,41.15,1021.65,2007.99,3088.05,2816.90,3193.81,599.73,587.48,49.00,0000 0000 0000 0000 000000
2017-06-28 10:22:24,0.50,0.98,0.00,28.71,32.30,34.63,13.60,41.06,1021.86,2007.99,3076.18,2808.74,3184.64,600.05,587.83,49.05,0000 0000 0000 0000 000000
2017-06-28 10:27:25,0.04,0.99,0.00,28.75,32.30,34.64,13.61,41.18,1021.80,2007.99,3074.03,2807.04,3183.00,599.94,587.52,49.10,0000 0000 0000 0000 000000
2017-06-28 10:32:26,0.49,1.00,0.00,28.80,32.31,34.65,13.58,41.14,1021.77,2007.99,3068.11,2802.84,3178.02,599.99,587.69,49.15,0000 0000 0000 0000 000000
2017-06-28 10:37:27,1.10,1.03,0.00,28.85,32.32,34.66,13.56,41.00,1021.99,2007.98,3051.04,2791.01,3164.77,599.86,587.37,49.20,0000 0000 0000 0000 000000
2017-06-28 10:42:28,1.00,1.10,0.00,28.92,32.32,34.69,13.54,40.91,1022.06,2007.94,3028.22,2775.34,3147.19,600.05,587.50,49.25,0000 0000 0000 0000 000000
2017-06-28 10:47:30,0.90,1.14,0.00,28.98,32.34,34.72,13.60,40.99,1022.03,2007.87,3011.11,2763.49,3134.09,600.01,587.36,49.30,0000 0000 0000 0000 000000
2017-06-28 10:52:31,0.08,1.17,0.00,29.04,32.35,34.75,13.58,40.94,1021.99,2007.70,3004.86,2759.03,3129.07,599.82,587.15,49.35,0000 0000 0000 0000 000000
2017-06-28 10:57:32,-0.01,1.17,0.13,29.09,32.36,34.78,13.58,40.95,1021.99,2007.54,3004.87,2758.95,3129.00,599.89,586.94,49.40,0000 0000 0000 0000 000000
2017-06-28 11:02:34,-0.03,1.16,1.00,29.14,32.37,34.83,13.55,40.83,1022.00,2007.25,3004.89,2758.79,3129.00,599.99,587.01,49.45,0000 0000 0000 0000 000000
2017-06-28 11:07:35,-0.00,1.16,1.00,29.18,32.39,34.86,13.55,40.78,1022.07,2007.12,3004.89,2758.78,3128.99,599.90,586.94,49.51,0000 0000 0000 0000 000000
2017-06-28 11:12:36,0.01,1.16,1.00,29.23,32.40,34.90,13.59,40.91,1022.00,2007.08,3004.87,2758.59,3128.98,599.72,586.59,49.56,0000 0000 0000 0000 000000
2017-06-28 11:17:37,-0.00,1.16,1.00,29.25,32.42,34.91,13.59,40.92,1022.01,2007.02,3004.85,2758.36,3128.94,600.15,586.89,49.61,0000 0000 0000 0000 000000
2017-06-28 11:22:38,0.00,1.16,1.00,29.25,32.43,34.92,13.56,40.98,1021.99,2007.00,3004.82,2758.20,3128.90,600.03,586.82,49.66,0000 0000 0000 0000 000000
2017-06-28 11:27:40,0.01,1.16,0.87,29.25,32.45,34.91,13.50,40.92,1021.95,2007.00,3004.63,2758.09,3128.76,599.80,586.63,49.71,0000 0000 0000 0000 000000
2017-06-28 11:32:41,0.01,1.16,0.00,29.22,32.45,34.92,13.61,40.92,1021.94,2007.00,3004.57,2758.03,3128.63,599.94,586.66,49.76,0000 0000 0000 0000 000000
2017-06-28 11:37:42,0.42,1.17,0.00,29.19,32.46,34.97,13.61,40.83,1022.02,2006.99,2999.24,2754.32,3124.07,599.80,586.84,49.81,0000 0000 0000 0000 000000
2017-06-28 11:42:44,0.78,1.21,0.00,29.13,32.47,35.00,13.63,40.77,1022.38,2006.99,2985.48,2743.71,3112.21,600.12,587.38,49.86,0000 0000 0000 0000 000000
2017-06-28 11:47:45,1.07,1.26,0.00,29.05,32.47,35.00,13.59,40.76,1022.48,2006.98,2967.23,2730.23,3097.20,600.14,587.60,49.91,0000 0000 0000 0000 000000
2017-06-28 11:52:46,0.78,1.31,0.00,28.96,32.47,35.00,13.65,40.77,1022.48,2006.97,2952.34,2719.44,3085.16,600.36,588.02,49.96,0000 0000 0000 0000 000000
2017-06-28 11:57:47,0.71,1.34,0.17,28.85,32.47,34.99,13.61,40.83,1022.49,2006.98,2940.65,2710.86,3075.55,599.99,587.90,50.01,0000 0000 0000 0000 000000
2017-06-28 12:02:48,0.70,1.39,1.00,28.74,32.46,34.99,13.67,40.84,1022.50,2006.97,2924.99,2699.18,3062.70,600.00,587.97,50.06,0000 0000 0000 0000 000000
2017-06-28 12:07:50,0.01,1.39,1.00,28.63,32.45,34.96,13.63,40.84,1022.54,2006.95,2924.00,2698.15,3061.98,600.14,588.45,50.11,0000 0000 0000 0000 000000
2017-06-28 12:12:51,-0.01,1.39,1.00,28.53,32.44,34.95,13.79,41.05,1022.49,2006.95,2924.02,2698.46,3061.99,600.75,589.23,50.16,0000 0000 0000 0000 000000
2017-06-28 12:17:52,-0.01,1.39,1.00,28.45,32.42,34.93,13.63,41.00,1022.48,2006.98,2924.10,2698.89,3061.99,600.03,588.63,50.21,0000 0000 0000 0000 000000
2017-06-28 12:22:53,-0.00,1.39,1.00,28.38,32.41,34.92,13.62,41.02,1022.52,2006.99,2924.29,2698.98,3062.02,599.83,588.67,50.26,0000 0000 0000 0000 000000
2017-06-28 12:27:54,-0.00,1.39,0.80,28.31,32.39,34.90,13.69,40.96,1022.88,2006.99,2924.32,2698.98,3062.07,599.93,589.05,50.31,0000 0000 0000 0000 000000
2017-06-28 12:32:56,0.01,1.39,0.00,28.25,32.37,34.87,13.66,41.07,1022.97,2006.99,2924.10,2698.83,3062.00,599.69,588.96,50.36,0000 0000 0000 0000 000000
2017-06-28 12:37:57,-0.01,1.39,0.00,28.21,32.35,34.85,13.65,41.21,1022.82,2006.99,2924.26,2698.95,3062.02,600.05,589.43,50.42,0000 0000 0000 0000 000000
2017-06-28 12:42:58,0.13,1.40,0.00,28.17,32.33,34.82,13.69,41.19,1022.49,2007.00,2922.85,2697.73,3061.00,600.22,589.44,50.47,0000 0000 0000 0000 000000
2017-06-28 12:47:59,0.09,1.40,0.00,28.13,32.30,34.78,13.63,41.06,1022.62,2007.02,2920.52,2696.07,3059.14,599.87,589.21,50.52,0000 0000 0000 0000 000000
2017-06-28 12:53:01,0.08,1.41,0.00,28.10,32.28,34.76,13.68,40.98,1022.96,2007.05,2919.43,2695.30,3058.32,599.74,589.30,50.57,0000 0000 0000 0000 000000
2017-06-28 12:58:02,0.37,1.42,0.00,28.07,32.26,34.72,13.73,41.43,1022.98,2007.14,2913.73,2690.90,3053.41,600.37,590.02,50.62,0000 0000 0000 0000 000000